Home   Weather   Wuhan   Past weeks

Flag for China Past Weather in Wuhan, Hubei, China — Yesterday and Last 2 Weeks

Now
61 °F

Fog.


Feels Like: 61 °F
Forecast: 58 / 74 °F
Wind: 3 mph from Southwest

Location: Wuhan Airport

Current Time: Oct 23, 2018 at 12:31:53 am

Latest Report: Oct 23, 2018 at 12:00 am


Visibility: 2 mi

Pressure: 30.15 "Hg

Humidity: 88%

Dew Point: 57 °F

Location of WuhanLocation

Past Weather in Wuhan — Graph

°F

Wuhan Temperature Yesterday

Maximum temperature yesterday: 70 °F (at 1:00 pm)
Minimum temperature yesterday: 59 °F (at 12:00 am)
Average temperature yesterday: 63 °F

High & Low Weather Summary for the Past Weeks

 TemperatureHumidityPressure
High79 °F (Oct 8, 10:00 am)100% (Oct 14, 7:00 am)30.33 "Hg (Oct 14, 7:00 am)
Low54 °F (Oct 11, 4:00 am)15% (Oct 11, 2:00 pm)29.95 "Hg (Oct 8, 3:00 pm)
Average64 °F68%30.13 "Hg
* Reported Oct 7 11:00 pm — Oct 22 11:00 pm, Wuhan. Weather by CustomWeather, © 2018

Note: Actual official high and low records may vary slightly from our data, if they occured in-between our weather recording intervals... More about our weather records

Advertising

Wuhan Weather History for the Previous 24 Hours

Scroll right to see more
 ConditionsComfort  
Time TempWeatherWind HumidityBarometerVisibility
11:00 pm
Mon, Oct 22
59 °FFog.1 mph94%30.15 "Hg2 mi
10:00 pm61 °FClear.3 mph88%30.15 "Hg4 mi
9:00 pm63 °FClear.3 mph88%30.12 "Hg4 mi
8:00 pm64 °FClear.3 mph78%30.12 "Hg4 mi
7:00 pm64 °FClear.3 mph78%30.12 "Hg5 mi
6:00 pm66 °FClear.3 mph73%30.09 "Hg5 mi
5:00 pm68 °FPassing clouds.3 mph64%30.09 "HgN/A
4:00 pm70 °FScattered clouds.3 mph60%30.09 "HgN/A
3:00 pm70 °FScattered clouds.3 mph60%30.09 "HgN/A
2:00 pm70 °FScattered clouds.3 mph60%30.09 "HgN/A
1:00 pm70 °FScattered clouds.3 mph60%30.12 "HgN/A
12:00 pm66 °FPassing clouds.3 mph73%30.15 "HgN/A
11:00 am64 °FPassing clouds.3 mph78%30.15 "Hg5 mi
10:00 am64 °FFog.6 mph83%30.15 "Hg3 mi
9:00 am63 °FFog.3 mph88%30.15 "Hg2 mi
8:00 am59 °FFog.3 mph94%30.15 "Hg1 mi
7:00 am59 °FFog.3 mph94%30.12 "Hg1 mi
6:00 am59 °FFog.3 mph94%30.12 "Hg2 mi
5:00 am59 °FFog.3 mph94%30.09 "Hg2 mi
4:00 am59 °FFog.3 mph94%30.12 "Hg2 mi
3:00 am59 °FFog.3 mph94%30.12 "Hg2 mi
2:00 am59 °FFog.3 mph94%30.12 "Hg2 mi
1:00 am59 °FFog.3 mph94%30.12 "Hg2 mi
12:00 am59 °FLight rain. Fog.3 mph94%30.12 "Hg1 mi
Weather by CustomWeather, © 2018

See weather overview